Weather History for Jonesboro, AR

Change the Weather History Date:

Saturday, February 2, 2013

  Actual Average Record
Temperature  
Mean Temperature 40 °F 39 °F  
Max Temperature 53 °F 48 °F 75 °F (1903)
Min Temperature 26 °F 30 °F -3 °F (1951)
Degree Days  
Heating Degree Days 25 26  
Month to date heating degree days 64 52  
Since 1 July heating degree days 2055 2348  
Cooling Degree Days 0 0  
Month to date cooling degree days 0 0  
Year to date cooling degree days 0 0  
Moisture  
Dew Point 27 °F    
Average Humidity 61    
Maximum Humidity 78    
Minimum Humidity 44    
Precipitation  
Precipitation 0.00 in 0.12 in 2.85 in (1939)
Month to date precipitation 0.00 0.25  
Year to date precipitation 5.37 3.68  
Snow  
Snow 0.00 in - 1.50 in (1970)
Month to date snowfall 0.0  
Since 1 July snowfall 7.0  
Snow Depth 0.00 in    
Sea Level Pressure  
Sea Level Pressure 30.20 in    
Wind  
Wind Speed 6 mph (West)    
Max Wind Speed 14 mph    
Max Gust Speed 16 mph    
Visibility 10 miles    
Events      
T = Trace of Precipitation, MM = Missing Value Source: NWS Daily Summary

Daily Weather History Graph

Daily Weather History Graph

Search for Another Location

Airport:

Trip Planner

Search our weather history database for the weather conditions in past years. The results will help you decide how hot, cold, wet, or windy it might be!

Date:

Astronomy

Feb. 02, 2013 Rise Set
Actual Time 7:01 AM CST 5:31 PM CST
Civil Twilight 6:35 AM CST 5:58 PM CST
Nautical Twilight 6:04 AM CST 6:28 PM CST
Astronomical Twilight 5:34 AM CST 6:58 PM CST
Moon No Moon Rise 10:27 AM CST (2/2)
Length of Visible Light 11h 23m
Length of Day
10h 29m
Waning Gibbous, 59% of the Moon is Illuminated
Feb 2
Waning Gibbous
Feb 3
Last Quarter
Feb 10
New
Feb 17
First Quarter
Feb 25
Full

Hourly Weather History & Observations

Time (CST) Temp. Windchill Dew Point Humidity Pressure Visibility Wind Dir Wind Speed Gust Speed Precip Events Conditions
12:53 AM 28.9 °F 25.2 °F 21.9 °F 75% 30.28 in 10.0 mi East 3.5 mph - N/A   Clear
1:53 AM 28.9 °F 23.9 °F 21.0 °F 72% 30.29 in 10.0 mi North 4.6 mph - N/A   Partly Cloudy
2:53 AM 28.4 °F 24.6 °F 21.2 °F 74% 30.28 in 10.0 mi NW 3.5 mph - N/A   Mostly Cloudy
3:53 AM 30.0 °F - 19.9 °F 66% 30.27 in 10.0 mi Calm Calm - N/A   Overcast
4:53 AM 30.9 °F - 21.9 °F 69% 30.25 in 10.0 mi Calm Calm - N/A   Overcast
5:53 AM 28.4 °F 23.3 °F 21.2 °F 74% 30.23 in 10.0 mi SSE 4.6 mph - N/A   Partly Cloudy
6:53 AM 28.9 °F 25.2 °F 23.0 °F 78% 30.23 in 10.0 mi South 3.5 mph - N/A   Clear
7:53 AM 30.9 °F 24.3 °F 25.0 °F 79% 30.22 in 10.0 mi South 6.9 mph - N/A   Clear
8:53 AM 33.1 °F 26.1 °F 25.0 °F 72% 30.22 in 10.0 mi SSW 8.1 mph - N/A   Scattered Clouds
9:53 AM 37.0 °F 29.8 °F 23.0 °F 57% 30.22 in 10.0 mi WSW 10.4 mph - N/A   Clear
10:53 AM 39.9 °F 34.5 °F 26.1 °F 58% 30.22 in 10.0 mi WSW 8.1 mph - N/A   Mostly Cloudy
11:53 AM 41.0 °F 36.4 °F 28.0 °F 60% 30.20 in 10.0 mi West 6.9 mph - N/A   Overcast
12:53 PM 44.1 °F 39.0 °F 28.0 °F 53% 30.17 in 10.0 mi WNW 9.2 mph - N/A   Overcast
1:53 PM 48.0 °F - 30.0 °F 50% 30.15 in 10.0 mi West 10.4 mph - N/A   Clear
2:53 PM 50.0 °F - 32.0 °F 50% 30.15 in 10.0 mi West 9.2 mph - N/A   Clear
3:53 PM 51.1 °F - 33.1 °F 50% 30.14 in 10.0 mi West 6.9 mph - N/A   Clear
4:53 PM 52.0 °F - 30.9 °F 45% 30.14 in 10.0 mi West 8.1 mph - N/A   Clear
5:53 PM 48.9 °F - 30.0 °F 48% 30.16 in 10.0 mi West 5.8 mph - N/A   Clear
6:53 PM 46.0 °F 43.9 °F 30.9 °F 56% 30.18 in 10.0 mi West 4.6 mph - N/A   Clear
7:53 PM 46.9 °F - 30.9 °F 54% 30.19 in 10.0 mi WNW 6.9 mph - N/A   Clear
8:53 PM 43.0 °F 40.3 °F 30.9 °F 62% 30.19 in 10.0 mi WNW 4.6 mph - N/A   Clear
9:53 PM 44.1 °F 40.8 °F 30.9 °F 60% 30.18 in 10.0 mi West 5.8 mph - N/A   Clear
10:53 PM 43.0 °F 39.5 °F 30.0 °F 60% 30.16 in 10.0 mi West 5.8 mph - N/A   Clear
11:53 PM 41.0 °F 36.4 °F 30.0 °F 65% 30.16 in 10.0 mi West 6.9 mph - N/A   Clear